Regional Weather Roundup
Issued by NWS Raleigh/Durham, NC

Home | Current Version | Previous Version | Text Only | Print | Product List | Glossary On
Versions: 1 2 3 4 5 6 7 8 9 10 11 12 13 14 15 16 17 18 19 20 21 22 23 24 25 26 27 28 29 30 31 32 33 34 35 36 37 38 39 40 41 42 43 44 45 46 47 48 49 50
000
ASUS42 KRAH 191310
RWRRAH
NORTH CAROLINA WEATHER ROUNDUP
NATIONAL WEATHER SERVICE RALEIGH NC
900 AM EDT TUE SEP 19 2017

NOTE: "FAIR" INDICATES FEW OR NO CLOUDS BELOW 12,000 FEET WITH NO
SIGNIFICANT WEATHER AND/OR OBSTRUCTIONS TO VISIBILITY.

NCZ001-053-055-056-065-067-191400-
WESTERN NORTH CAROLINA

CITY           SKY/WX    TMP DP  RH WIND       PRES   REMARKS
ASHEVILLE      SUNNY     60  58  92 CALM      30.12R
JEFFERSON      FOG       56  56  99 CALM      30.13S VSB<1/4
MORGANTON      PTSUNNY   63  63  98 W3        30.11R
HICKORY        SUNNY     66  65  96 W3        30.07R
RUTHERFORDTON  CLOUDY    67  65  91 CALM      30.08R
MOUNT AIRY     SUNNY     67  62  86 CALM      30.08R
BOONE          SUNNY     58  58  99 CALM      30.14S
$$

NCZ021-022-025-041-071-084-088-191400-
CENTRAL NORTH CAROLINA

CITY           SKY/WX    TMP DP  RH WIND       PRES   REMARKS
CHARLOTTE      MOSUNNY   71  68  90 N7        30.05R
GREENSBORO     MOSUNNY   70  67  90 N6        30.04S
WINSTON-SALEM  SUNNY     69  65  86 NE6       30.06R
RALEIGH-DURHAM MOSUNNY   69  66  90 N8        30.01R
FORT BRAGG     SUNNY     71  65  83 N8        29.98S
FAYETTEVILLE   MOSUNNY   71  67  87 N9        29.98S
BURLINGTON     SUNNY     71  66  84 N6        30.03R
LAURINBURG     SUNNY     71  67  87 N8        30.00S
$$

NCZ011-015-027-028-043-044-047-080-103-191400-
NORTHEASTERN NORTH CAROLINA

CITY           SKY/WX    TMP DP  RH WIND       PRES   REMARKS
ROCKY MT-WILSO CLOUDY    69  67  93 NW9       29.97R
GREENVILLE     MOSUNNY   70  66  88 N9        29.96S
WASHINGTON     PTSUNNY   71  66  85 NW12G17   29.92S
ELIZABETH CITY LGT RAIN  72  70  93 NW15      29.86S
MANTEO         LGT RAIN  69  67  93 N22G33    29.82S
CAPE HATTERAS  LGT RAIN  72  70  93 N10G23    29.82R
$$

NCZ078-087-090-091-093-098-101-191400-
SOUTHEASTERN NORTH CAROLINA

CITY           SKY/WX    TMP DP  RH WIND       PRES   REMARKS
LUMBERTON      SUNNY     71  68  90 N7        29.99R
GOLDSBORO      PTSUNNY   70  70 100 NW8       29.96R
KINSTON        CLOUDY    70  66  88 NW12      29.97R
KENANSVILLE    CLOUDY    68  66  94 NW6       29.97R
NEW BERN       MOSUNNY   72  67  84 NW10G18   29.93S
CHERRY POINT   PTSUNNY   72  68  87 NW16      29.92S
BEAUFORT       MOSUNNY   71  69  93 NW15      29.90R
JACKSONVILLE   CLOUDY    71  68  90 NW13      29.95R
WILMINGTON     SUNNY     72  67  84 NW12      29.96R
$$




USA.gov is the U.S. government's official web portal to all federal, state and local government web resources and services.